Location: Cheching
(60.0667°N, 164.2167°W)
Time: 02:45:46
(UTC+00:00)

UNISAT 6 - Pass Details

Date: 22 January 2021
Orbit: 607 x 687 km, 97.7° (Epoch: 05 March)

Event Time Altitude Azimuth Distance (km) Brightness Sun altitude
Rises 15:40:52 0° 115° (ESE) 2,885 ? -27.7°
Reaches altitude 10° 15:43:26 10° 99° (E) 1,992 ? -27.4°
Maximum altitude 15:46:40 21° 51° (NE) 1,424 ? -27.0°
Drops below altitude 10° 15:49:57 10° 2° (N) 2,032 ? -26.6°
Enters shadow 15:51:05 - 354° (N) 2,407 ? -26.5°
